This demonstration page uses our WeatherBlox Daily Observations layout. Learn more.

Left ArrowRight Arrow

31.31129, -92.44514

Hourly Observations for October 12, 2015

Temp ( °F °C ) Dew Point ( °F °C ) Humidity (%) Winds ( mph kmh ) Pressure ( in mb ) Visibility ( mi km ) Precip ( " mm )
12:53 am 00:53 Clear 67 19.4 59 15 76 76 S 5 7 29.89 1012 10 16 0.00 0.00
1:53 am 01:53 Clear 63 17.2 59 15 87 87 Calm 29.88 1012 10 16 0.00 0.00
2:53 am 02:53 Clear 63 17.2 60 15.6 90 90 Calm 29.88 1012 10 16 0.00 0.00
3:53 am 03:53 Clear 62 16.7 60 15.6 93 93 SE 6 9 29.85 1011 8 13 0.00 0.00
4:53 am 04:53 Clear 62 16.7 60 15.6 93 93 SE 6 9 29.86 1011 8 13 0.00 0.00
5:53 am 05:53 Clear 62 16.7 61 16.1 96 96 SE 6 9 29.86 1011 7 11 0.00 0.00
6:53 am 06:53 Clear 61 16.1 60 15.6 97 97 SSE 5 7 29.87 1012 7 11 0.00 0.00
8:53 am 08:53 Sunny 69 20.6 63 17.2 81 81 SSE 8 13 29.88 1012 7 11 0.00 0.00
9:53 am 09:53 Partly Cloudy 76 24.4 63 17.2 64 64 SSW 7 11 29.91 1013 10 16 0.00 0.00
10:01 am 10:01 Mostly Cloudy 77 25 63 17.2 62 62 S 9 15 29.91 1013 10 16 0.00 0.00
10:15 am 10:15 Partly Cloudy 77 25 64 17.8 64 64 VRB 7 11 29.91 1013 10 16 0.00 0.00
10:53 am 10:53 Sunny 79 26.1 65 18.3 62 62 WSW 10 17 29.90 1012 10 16 0.00 0.00
11:53 am 11:53 Sunny 83 28.3 65 18.3 55 55 S 7 11 29.88 1012 10 16 0.00 0.00
12:53 pm 12:53 Sunny 86 30 65 18.3 49 49 SW 9 15 29.86 1011 10 16 0.00 0.00
1:53 pm 13:53 Sunny 89 31.7 64 17.8 43 43 SW 12 19 29.83 1010 10 16 0.00 0.00
2:53 pm 14:53 Sunny 90 32.2 65 18.3 44 44 SW 14 22 29.80 1009 10 16 0.00 0.00
3:53 pm 15:53 Partly Cloudy 91 32.8 65 18.3 42 42 S 13 20 29.78 1009 10 16 0.00 0.00
4:53 pm 16:53 Mostly Sunny 89 31.7 65 18.3 45 45 S 10 17 29.78 1009 10 16 0.00 0.00
5:53 pm 17:53 Sunny 87 30.6 65 18.3 48 48 SSW 10 17 29.78 1009 10 16 0.00 0.00
6:53 pm 18:53 Clear 83 28.3 66 18.9 57 57 S 7 11 29.79 1009 10 16 0.00 0.00
7:53 pm 19:53 Clear 80 26.7 66 18.9 62 62 S 8 13 29.81 1010 10 16 0.00 0.00
8:53 pm 20:53 Clear 78 25.6 67 19.4 69 69 S 8 13 29.83 1010 10 16 0.00 0.00
9:53 pm 21:53 Clear 77 25 68 20 74 74 SSW 9 15 29.84 1011 10 16 0.00 0.00
10:53 pm 22:53 Clear 75 23.9 69 20.6 82 82 SSW 9 15 29.85 1011 10 16 0.00 0.00
11:53 pm 23:53 Clear 75 23.9 70 21.1 84 84 SSW 10 17 29.85 1011 10 16 0.00 0.00

Powered by AerisWeather